Regional Weather Roundup
Issued by NWS

Home | Current Version | Previous Version | Graphics & Text | Print | Product List | Glossary Off
Versions: 1 2 3 4 5 6 7 8 9 10 11 12 13 14 15 16 17 18 19 20 21 22 23 24 25 26 27 28 29 30 31 32 33 34 35 36 37 38 39 40 41 42 43 44 45 46 47 48 49 50

873
ASUS43 KMKX 220811
RWRWI

WISCONSIN REGIONAL WEATHER ROUNDUP
NATIONAL WEATHER SERVICE MILWAUKEE/SULLIVAN WI
300 AM CDT SUN OCT 22 2017

NOTE: "FAIR" INDICATES FEW OR NO CLOUDS BELOW 12,000 FEET WITH NO
SIGNIFICANT WEATHER AND/OR OBSTRUCTIONS TO VISIBILITY.

WIZ001-002-006>008-014>016-023>028-220900-
NORTHWEST WISCONSIN

CITY           SKY/WX    TMP DP  RH WIND       PRES   REMARKS
SUPERIOR ARPT  CLOUDY    50  47  88 SW7       29.77R
ASHLAND        CLOUDY    54  51  90 SW13      29.76S
HAYWARD        CLOUDY    52  48  86 SW13      29.80R
SIREN          CLOUDY    48  44  84 SW7       29.83R
CUMBERLAND     CLOUDY    46  43  87 W6        29.84R
RICE LAKE      CLOUDY    51  46  82 SW6       29.86R
CHETEK         CLOUDY    52  47  84 W7        29.85R
LADYSMITH      CLOUDY    53  51  94 SW6       29.83F
EAU CLAIRE     CLOUDY    53  50  89 W7        29.85R
MENOMONIE      CLOUDY    53  45  75 W7        29.87R
NEW RICHMOND   CLOUDY    49  42  79 SW7       29.86S
OSCEOLA        CLOUDY    48  44  84 SW8       29.89R
$$

WIZ003>005-009-010-017-018-220900-
NORTH CENTRAL WISCONSIN

CITY           SKY/WX    TMP DP  RH WIND       PRES   REMARKS
MANITOWISH WTR LGT RAIN  58  58 100 S8        29.77F
ARBOR VITAE    LGT RAIN  59  58  96 S8        29.79F
WOODRUFF       LGT RAIN  59  58  96 S8        29.79F
RHINELANDER    LGT RAIN  59  59 100 SE3       29.82F
EAGLE RIVER    NOT AVBL
LAND O LAKES   CLOUDY    60  58  93 S8        29.83S
PHILLIPS       DRIZZLE   59  59 100 SW12G17   29.77F
TOMAHAWK       DRIZZLE   59  58  96 SE3       29.82F
MEDFORD        RAIN      57  55  94 SW6       29.81S
MERRILL        RAIN      60  60 100 S5        29.83F
$$

WIZ029-030-035-036-043>047-220900-
CENTRAL WISCONSIN

CITY           SKY/WX    TMP DP  RH WIND       PRES   REMARKS
WAUSAU         CLOUDY    60  59  96 S8        29.83F
MOSINEE        CLOUDY    59  59 100 S10       29.86S
MARSHFIELD     LGT RAIN  61  58  90 S10       29.83F
STEVENS POINT  CLOUDY    60  60  99 SW7       29.86S
WAUPACA        CLOUDY    68  59  73 S7        29.86F
WAUTOMA        CLOUDY   N/A N/A N/A SW5       29.86F
WISC RAPIDS    CLOUDY    61  60  97 S5        29.85F
CAMP DOUGLAS   NOT AVBL
$$

WIZ011>013-019>022-031-037>040-048>050-220900-
NORTHEAST WISCONSIN

CITY           SKY/WX    TMP DP  RH WIND       PRES   REMARKS
ANTIGO         CLOUDY    60  57  91 S7        29.85F
SHAWANO        MOCLDY    67  58  75 S8        29.85F
OCONTO         CLOUDY    62  57  83 S8        29.87F
STURGEON BAY   PTCLDY    59  55  87 S17G23    29.90F
GREEN BAY      CLOUDY    67  59  75 S12       29.88F
MANITOWOC      CLOUDY    60  55  83 S17       29.92F
APPLETON       CLOUDY    64  54  68 S13       29.86F
CLINTONVILLE   CLOUDY    66  57  72 S6        29.86S
OSHKOSH        PTCLDY    66  58  75 S16       29.87S
$$

WIZ032>034-041-042-053>061-220900-
SOUTHWEST WISCONSIN

CITY           SKY/WX    TMP DP  RH WIND       PRES   REMARKS
LA CROSSE      LGT RAIN  55  54  96 W6        29.88R
SPARTA         RAIN      54  53  98 W7        29.88R
VIROQUA        CLOUDY    54  54 100 NW8       29.87R
BOSCOBEL       CLOUDY    61  59  93 CALM      29.86F
PRAIRIE DU CHI DRIZZLE   56  53  90 W7        29.89R
PLATTEVILLE    CLOUDY    62  61  94 SW3       29.88S
$$

WIZ056-057-062-063-064-067-068-220900-
SOUTH CENTRAL WISCONSIN

CITY           SKY/WX    TMP DP  RH WIND       PRES   REMARKS
REEDSBURG      CLOUDY    61  61  99 CALM      29.86F
BARABOO/DELLS  CLOUDY    63  57  80 SW8       29.87F
LONE ROCK      CLOUDY    61  61 100 SE5       29.86F
MINERAL POINT  CLOUDY    63  61  94 CALM      29.87F
MADISON        MOCLDY    67  57  70 S14G23    29.87S
MIDDLETON      CLOUDY    69  58  67 S6        29.88S
WATERTOWN      CLOUDY    66  58  75 S14       29.88F
MONROE         CLOUDY    64  55  72 S10       29.89F
JANESVILLE     CLOUDY    70  55  60 S14G28    29.88F
$$

WIZ051-052-058>065-066-070>072-220900-
SOUTHEAST WISCONSIN

CITY           SKY/WX    TMP DP  RH WIND       PRES   REMARKS
MILWAUKEE      CLOUDY    69  56  62 S14       29.94F
WAUKESHA       CLOUDY    64  54  68 S8        29.93F
MILWAUKEE/TIMM CLOUDY    66  52  59 S9G16     29.94F
RACINE         CLOUDY    63  55  75 S7        29.96F
BURLINGTON     PTCLDY    67  57  72 S9        29.92F
KENOSHA        CLOUDY    68  55  63 S12G22    29.95F
FOND DU LAC    MOCLDY    68  55  63 S12G18    29.88F
SHEBOYGAN      CLOUDY    61  57  87 S13       29.92F
WEST BEND      CLOUDY    66  54  63 S7        29.92F
JUNEAU         CLOUDY    66  57  71 S14       29.90F
$$

LSZ147-162-220900-
LAKE SUPERIOR

STATION/POSITION TIME  TEMP    WIND        PRES    WAVE
                       AIR SEA DIR/SP/G            HT/PER
                 (UTC) (F)     (DEG/KT/KT) (MB)    (FT/S)
W MID LAKE BUOY  0750   58 52              1005.2R   2/ 4
DEVILS ISLAND    0800   55     240/ 24/ 29 1005.9F
PORT WING        0730          230/ 11/ 17 1007.8R
SAXON HARBOR     0740   59     260/  7/ 15 1007.1R
$$

LMZ867-665-643>646-220900-
LAKE MICHIGAN

STATION/POSITION TIME  TEMP    WIND        PRES    WAVE
                       AIR SEA DIR/SP/G            HT/PER
                 (UTC) (F)     (DEG/KT/KT) (MB)    (FT/S)
S GREEN BAY BUOY 0800   62 58  180/ 14/ 17 1011.8
N MID LAKE BUOY  0750   63 58  180/ 23/ 27 1013.6F   6/ 7
NORTHPORT PIER   0740   61     160/ 11/ 20 1012.9F
KEWAUNEE LAKESHO 0748   56     180/ 14/ 17 1012.3F
SHEBOYGAN LAKESH 0800   57     180/ 21/ 22 1013.1F
PORT WASHINGTON  0730   56     200/  6/  9 1014.9F
ATWATER BUOY     0639   57 52  160/ 16/ 17 1014.2F
MILWAUKEE LAKESH 0750   58     150/ 13/ 14   N/A
S MID LAKE BUOY  0750   63 61  140/ 17/ 21 1015.4F   4/ 5
KENOSHA   LAKESH 0800   58     170/ 11/ 15 1013.9
$$

TC  - TEMPERATURE IN CELSIUS
VSB - VISIBILITY IN STATUTE MILES
WCI - WIND CHILL INDEX
HX  - HEAT INDEX





USA.gov is the U.S. government's official web portal to all federal, state and local government web resources and services.